Theta_e
291 292 291 291 293 293 292 293 289 292 288 290 288 288 290 289 288 289 290 290 291 291 292 292 292 293 293 294 294 295 295 296 297 297 297 297 296 297 302 303 303 303 302 299
282 288 291 289 292 293 294 295 294 293 290 293 292 286 287 289 289 289 290 291 292 291 291 292 293 293 294 294 294 296 296 296 295 295 293 292 291 291 292 294 295 295 294 293
284 285 287 284 290 292 293 295 295 291 295 293 291 288 289 289 289 291 292 292 291 292 292 292 293 294 294 294 294 294 293 291 291 290 291 290 290 290 290 289 289 289 290 291
279 285 279 288 294 296 294 295 297 298 296 297 296 297 293 291 292 291 291 291 291 291 291 292 292 293 293 293 292 291 290 289 289 289 289 288 288 288 287 287 287 288 289 290
280 282 282 283 284 292 291 291 298 297 299 296 293 291 293 292 292 293 293 293 293 291 291 292 293 293 291 289 289 288 288 288 288 288 283 284 282 282 285 286 287 287 287 287
282 280 278 288 285 295 293 287 297 299 298 299 290 289 296 298 293 291 291 290 290 290 291 291 291 290 288 288 287 288 287 287 286 285 282 281 282 281 280 285 285 285 286 286
283 280 280 285 287 297 285 288 297 298 300 299 293 298 301 294 291 290 289 290 289 290 290 289 287 287 287 286 286 285 285 283 282 283 282 281 280 280 285 285 285 285 285 285
280 276 279 286 291 289 292 289 287 294 298 298 298 296 293 292 289 289 288 288 287 287 286 285 286 286 285 285 284 282 282 283 284 284 284 284 282 285 285 285 285 285 285 284
285 287 286 292 290 289 290 291 287 289 293 299 298 296 290 289 288 287 287 285 284 284 282 282 280 283 283 282 283 283 284 283 284 284 284 284 286 285 284 285 284 283 283 281
285 285 284 288 286 288 287 287 287 287 288 292 291 290 288 287 285 285 283 282 278 280 280 279 275 280 283 282 282 283 282 280 281 282 282 281 278 283 283 282 278 281 280 281
281 283 285 285 286 287 288 287 286 286 286 291 289 287 287 284 282 282 281 279 280 280 281 278 278 278 280 282 282 282 282 281 280 276 275 276 276 275 276 275 277 274 273 274
280 277 276 283 283 283 288 288 286 285 285 285 287 286 284 283 282 281 279 277 277 279 278 275 275 274 273 270 274 279 278 277 275 276 274 275 277 276 286 286 287 287 286 281
273 274 275 279 282 280 282 285 284 284 284 283 283 283 283 280 278 277 276 275 275 274 272 270 271 272 273 269 279 280 279 277 277 278 280 279 275 275 276 275 284 285 285 285
271 273 278 277 276 277 279 280 278 277 276 278 277 277 278 276 276 275 273 270 270 269 267 267 270 270 271 276 275 277 280 281 281 280 275 275 276 276 276 276 273 269 277 281
267 270 272 274 274 272 274 276 275 274 274 273 273 274 276 275 273 270 268 268 267 265 264 264 269 267 268 274 280 280 280 280 279 275 280 275 269 272 274 274 273 271 265 273
263 270 268 268 269 268 268 268 271 270 270 269 269 269 269 269 267 266 265 266 268 263 260 261 264 263 265 273 279 278 279 280 276 269 268 268 267 266 271 271 264 263 264 264
261 262 262 263 265 266 264 264 265 266 266 266 266 266 265 264 263 261 259 260 260 258 258 259 258 260 263 266 271 269 266 264 268 266 264 265 261 264 262 262 262 260 263 264
261 262 262 262 263 264 263 263 263 263 264 264 265 265 263 262 259 257 256 257 258 258 259 258 256 259 261 262 262 261 261 261 268 265 264 263 260 261 261 262 263 262 261 262
259 259 260 260 260 261 261 262 262 263 264 263 263 262 262 260 259 257 256 259 259 259 257 258 267 261 263 266 263 265 263 267 266 265 264 264 262 259 260 258 260 259 257 259
258 259 259 260 260 259 259 260 262 262 263 267 267 265 264 264 263 263 261 259 258 259 260 262 262 261 262 263 266 265 265 265 265 264 264 264 264 264 262 259 259 259 258 256
256 257 257 258 259 259 259 259 260 260 261 262 263 263 263 264 265 265 264 264 261 262 262 263 262 263 263 263 264 263 263 263 264 263 263 263 262 261 261 257 255 256 257 256
255 256 256 257 257 258 259 259 259 260 260 260 261 262 263 262 263 261 260 262 261 262 261 262 262 262 263 263 262 262 262 262 262 261 261 260 260 260 260 259 258 258 257 254
254 255 255 256 256 257 259 258 258 258 258 258 258 259 259 260 261 262 263 260 260 261 261 261 261 263 264 262 261 261 261 261 261 261 261 260 260 260 259 259 258 257 256 256
252 253 253 255 256 258 256 257 257 258 258 259 259 259 258 259 261 260 260 260 260 260 260 260 261 264 264 261 260 260 260 260 260 260 260 260 259 259 258 258 258 258 257 256
251 251 252 253 253 254 254 255 256 257 257 258 258 259 259 259 258 259 259 259 260 260 259 260 262 263 262 261 260 259 259 260 260 259 259 259 259 258 258 257 257 256 256 256
249 251 251 251 252 253 253 253 253 254 255 255 255 256 257 257 257 257 258 258 258 258 258 259 259 259 259 259 259 259 259 259 259 259 259 259 258 258 257 257 256 256 256 256
250 251 250 251 251 251 251 251 252 253 252 252 253 254 254 254 255 256 256 256 256 257 257 257 258 258 258 258 258 258 258 258 258 258 257 257 257 257 257 256 256 255 255 254
Wind_Speed
23 18 14 21 24 24 28 32 17 26 12 9 9 11 12 8 5 7 8 8 8 7 7 5 5 5 5 5 6 6 7 6 6 5 4 4 3 2 2 1 1 0 1 2
4 10 22 23 22 25 22 28 22 25 17 8 10 3 5 9 9 8 10 10 9 8 7 8 8 7 6 5 5 4 6 5 4 4 3 2 2 2 3 1 2 2 3 2
19 5 12 10 26 29 29 28 30 28 34 8 7 9 11 11 12 17 18 13 10 10 10 8 9 8 7 6 5 5 5 5 4 4 4 4 3 3 2 2 2 2 3 4
6 11 17 9 17 24 30 29 28 27 13 19 16 15 12 11 16 17 11 10 10 8 7 8 5 5 6 6 6 6 5 5 5 5 4 4 4 3 3 2 3 2 2 3
8 12 4 5 10 32 26 33 28 26 28 14 6 5 8 14 14 17 15 13 12 8 5 6 7 7 7 6 6 6 6 5 4 4 3 3 3 3 3 2 2 2 2 2
6 9 16 22 11 13 4 20 19 30 33 30 11 11 21 17 14 11 11 8 9 9 6 8 7 8 8 7 7 6 6 5 4 5 5 5 4 4 1 3 3 2 3 3
10 4 9 7 13 22 14 26 22 25 31 24 17 26 21 10 11 10 7 10 8 8 10 8 7 7 7 8 7 6 6 6 6 5 6 4 5 3 3 4 4 3 4 2
4 4 15 12 21 27 19 3 4 15 26 20 24 10 8 10 10 12 12 9 8 10 8 6 7 8 8 7 6 5 6 7 6 5 4 4 6 4 4 4 4 4 2 3
12 14 1 25 7 3 3 5 4 4 8 22 22 20 11 10 10 9 10 8 5 8 8 4 3 5 8 6 7 7 8 7 7 5 4 4 5 6 4 4 4 3 2 2
5 4 5 10 3 3 2 1 3 3 7 8 8 11 10 9 8 9 7 9 6 10 8 5 2 5 7 9 8 9 9 7 5 8 6 4 2 3 4 4 3 3 2 2
1 3 2 2 3 2 2 1 2 2 3 8 11 8 8 8 8 8 9 7 9 10 9 7 5 5 4 6 10 11 9 7 7 5 5 5 3 3 2 1 3 2 2 3
1 6 6 3 11 14 5 4 3 0 0 4 4 10 7 7 7 10 10 8 8 8 9 7 6 5 2 1 2 8 8 5 3 4 4 4 5 4 8 8 11 10 8 4
6 15 13 14 4 14 9 7 5 5 6 2 4 5 8 5 5 8 9 8 8 9 9 8 6 5 3 3 4 6 8 7 6 5 5 5 3 5 7 2 11 12 11 13
13 16 1 14 9 15 10 8 5 5 6 5 3 4 7 9 9 8 8 7 9 10 9 8 7 5 3 3 4 6 7 6 5 5 4 4 3 3 3 3 2 3 8 11
18 13 9 9 11 15 11 7 11 10 6 8 8 6 6 12 10 9 8 9 10 10 7 7 7 5 4 4 5 5 5 4 5 4 6 4 3 4 4 4 3 3 3 6
20 4 11 14 13 16 13 15 10 9 7 6 7 9 9 10 10 9 8 7 9 7 4 5 6 3 4 4 4 4 5 8 5 4 4 4 3 3 4 4 3 2 3 2
11 12 16 17 16 15 14 11 9 8 7 8 8 8 10 11 11 10 9 8 9 8 6 5 4 3 4 5 5 4 2 2 5 5 4 4 3 3 2 2 3 3 2 1
8 7 7 8 10 11 11 11 10 10 9 6 6 8 9 10 9 7 6 6 8 9 8 5 4 5 6 6 5 4 4 2 3 4 3 3 3 2 2 2 2 2 1 3
10 9 9 10 10 9 8 10 10 9 9 7 7 9 8 9 8 6 3 6 6 6 5 5 7 6 6 7 5 3 3 4 3 3 3 3 2 2 2 1 1 2 2 1
12 12 12 11 11 11 10 10 9 9 10 8 8 9 10 8 5 4 4 6 4 3 1 4 4 5 5 6 6 3 3 3 3 3 2 1 0 1 1 1 1 1 2 1
12 12 11 11 10 9 9 9 8 10 9 10 9 8 6 6 6 4 4 3 3 4 4 5 4 3 3 4 4 3 2 2 1 1 1 1 2 2 2 2 2 3 3 2
9 10 10 10 8 8 8 8 8 7 8 8 8 7 6 6 5 5 4 3 3 3 2 2 2 4 3 3 2 2 1 0 0 0 1 2 3 3 3 3 3 3 3 2
7 8 8 8 9 8 5 6 7 6 7 6 6 6 5 2 2 2 1 2 2 1 1 1 2 2 3 1 1 1 1 2 2 2 3 3 3 4 4 4 3 3 3 3
6 6 6 7 7 5 7 8 7 5 5 4 4 4 3 3 1 2 2 2 2 3 2 2 3 4 5 2 1 2 3 3 3 3 3 5 4 4 4 4 4 4 4 5
5 6 4 5 5 4 5 6 6 5 6 5 5 4 4 1 1 3 3 3 5 5 3 5 6 7 2 2 3 4 4 4 4 4 4 4 5 4 4 5 5 5 5 5
5 4 5 4 4 4 4 4 4 4 4 4 3 2 2 1 3 3 3 4 4 5 4 4 3 3 4 4 5 5 5 5 5 5 6 6 6 6 6 6 6 6 6 6
4 5 4 4 2 2 2 2 4 5 2 2 5 4 3 3 4 5 6 5 4 5 4 4 4 5 5 5 6 6 6 6 8 6 6 6 7 7 7 7 6 6 6 6
Wind_Direction
213 201 177 206 205 201 207 222 213 233 225 258 231 214 211 202 159 165 190 195 203 201 200 194 185 176 167 173 171 167 169 176 197 188 184 182 192 171 196 151 151 264 207 277
163 176 196 200 198 208 219 232 234 247 249 188 229 139 160 192 182 195 202 205 207 198 192 195 190 190 188 190 180 157 156 163 138 128 116 110 107 107 109 71 34 43 17 8
208 184 156 205 197 198 209 220 216 223 230 152 212 209 209 204 191 202 204 197 203 199 198 193 192 180 190 182 148 159 152 144 145 145 148 149 131 115 87 90 81 58 15 8
151 131 202 221 198 202 207 219 223 240 240 210 214 222 214 215 197 209 195 200 213 203 191 193 175 155 128 136 149 151 152 158 154 158 158 142 131 114 100 78 73 87 39 25
165 194 331 281 214 192 185 226 217 224 234 233 183 97 258 212 221 207 197 195 205 183 160 146 151 145 134 138 141 150 161 158 168 151 128 130 124 119 95 101 66 56 62 47
165 176 201 234 141 176 99 266 205 216 226 224 145 200 231 202 192 199 190 171 161 154 132 142 160 149 145 152 150 163 158 149 130 121 131 120 120 104 88 90 96 65 36 21
179 166 273 239 146 138 149 236 213 207 224 212 193 213 228 163 184 177 163 163 141 148 160 159 152 146 149 150 161 150 133 114 100 95 101 108 116 112 129 109 105 92 75 23
120 133 259 159 153 168 208 87 112 215 222 213 219 213 178 176 168 153 150 142 146 142 151 157 161 149 152 159 129 125 119 114 112 112 115 122 124 106 84 92 90 65 67 62
201 205 278 174 173 126 47 151 184 193 201 208 216 205 161 162 157 159 151 136 118 132 127 103 136 149 142 138 139 133 126 116 121 107 115 129 132 132 127 126 122 123 108 81
129 220 185 209 305 17 53 225 174 214 193 174 178 162 159 139 149 147 145 144 128 130 140 148 91 112 134 149 147 137 130 131 133 139 136 113 67 117 116 123 127 125 122 101
297 35 2 9 270 301 244 79 87 54 228 188 145 156 148 141 147 146 146 138 148 152 151 138 114 103 114 148 149 142 138 138 139 139 135 116 85 115 102 257 149 173 145 127
40 9 314 33 351 341 300 245 209 154 57 101 159 147 137 143 148 147 148 136 132 134 127 117 104 108 113 344 126 139 131 121 113 110 80 96 119 88 78 104 95 89 101 107
328 322 288 292 287 359 331 2 14 55 35 106 46 122 126 126 132 117 120 116 133 133 118 107 102 96 46 57 96 103 125 128 120 119 130 138 127 137 134 34 85 76 69 61
355 333 186 23 343 340 343 341 35 47 37 43 70 48 97 104 102 111 113 111 106 105 97 102 107 92 16 10 107 120 121 121 127 132 98 89 101 102 106 106 91 348 19 45
346 342 355 348 10 1 357 351 43 39 13 28 29 56 91 121 114 103 91 92 95 94 90 100 109 89 356 344 102 106 122 129 119 121 127 112 103 106 104 99 93 85 14 27
317 38 7 24 19 18 9 18 40 27 27 26 50 48 59 75 86 85 84 99 120 117 102 97 100 49 344 336 104 105 143 149 115 104 101 101 100 116 128 131 108 86 61 13
360 2 357 5 10 16 19 14 23 26 30 42 49 62 74 83 75 63 48 52 76 78 72 65 67 19 34 43 83 85 81 60 105 93 89 93 101 102 132 141 129 110 140 313
356 7 9 359 359 13 10 15 18 20 24 22 52 75 82 82 97 86 81 86 82 65 43 35 44 38 57 60 70 77 81 58 60 79 73 65 59 59 75 90 90 110 33 32
359 2 14 23 11 14 15 13 14 15 20 28 57 66 76 82 97 107 113 92 82 82 6 11 53 49 42 63 53 65 71 89 98 92 79 82 62 22 44 36 46 67 80 69
360 7 11 15 20 20 14 9 7 24 17 33 60 67 74 73 98 109 82 77 66 98 107 55 53 53 55 48 54 69 76 75 85 89 83 87 274 280 326 313 279 289 326 359
357 357 6 8 9 13 11 5 9 22 16 30 49 55 62 58 57 63 89 88 65 64 72 74 63 55 54 51 47 63 77 93 107 137 180 238 266 261 270 297 296 287 298 301
348 350 357 358 1 2 5 4 9 16 26 30 31 29 49 48 56 70 49 58 115 67 69 69 63 42 22 28 24 31 33 17 341 251 243 244 253 267 266 262 260 258 259 254
339 346 347 354 346 329 339 11 6 10 26 25 25 25 28 13 4 6 96 68 76 2 40 16 334 294 269 137 340 303 278 262 253 249 249 245 245 246 251 248 245 248 258 255
332 335 331 329 326 356 3 352 349 349 5 1 10 18 11 3 23 63 74 49 6 344 301 258 269 274 272 189 225 249 251 246 240 229 243 250 242 244 245 249 255 251 248 253
320 311 312 348 350 347 331 336 326 353 352 349 350 354 354 10 302 345 326 311 306 312 295 284 279 274 260 230 242 247 251 246 239 230 235 240 246 244 246 242 244 249 250 250
318 318 312 296 281 296 305 328 326 323 328 333 312 332 332 308 292 291 286 286 279 278 268 266 251 252 251 252 248 242 240 237 236 236 236 236 240 241 242 244 243 244 245 249
297 293 310 315 299 315 317 304 312 309 311 295 295 298 306 304 294 290 283 277 271 265 259 258 253 251 247 248 251 247 244 245 241 242 239 239 239 242 247 248 247 247 247 247